Regional Weather Roundup
Issued by NWS

Home | Current Version | Previous Version | Graphics & Text | Print | Product List | Glossary Off
Versions: 1 2 3 4 5 6 7 8 9 10 11 12 13 14 15 16 17 18 19 20 21 22 23 24 25 26 27 28 29 30 31 32 33 34 35 36 37 38 39 40 41 42 43 44 45 46 47 48 49 50

000
ASUS43 KDTX 222001
RWRMI
MICHIGAN HOURLY REGIONAL WEATHER ROUNDUP
NATIONAL WEATHER SERVICE DETROIT/PONTIAC MI
400 PM EDT SUN OCT 22 2017

NOTE: "FAIR" INDICATES FEW OR NO CLOUDS BELOW 12,000 FEET WITH NO
SIGNIFICANT WEATHER AND/OR OBSTRUCTION TO VISIBILITY.

MIZ047>049-052>055-059>063-066>070-074>076-081>083-222100-
SOUTHEAST LOWER MICHIGAN

CITY           SKY/WX    TMP DP  RH WIND       PRES   REMARKS
ADRIAN         SUNNY     76  55  48 SW14G28   30.04F
ALMA           MOSUNNY   76  56  49 S17G25    29.96F
ANN ARBOR      SUNNY     77  57  50 S15G23    30.03F
BAD AXE        SUNNY     75  51  43 S17       30.01F
CARO           SUNNY     77  53  43 S15G26    29.99F
DETROIT CITY   SUNNY     75  56  51 S15       30.06F
DETROIT        MOSUNNY   77  58  51 S12       30.06F
FLINT          SUNNY     76  56  49 S18G25    30.01F
GROSSE ILE     SUNNY     72  58  60 SE10      30.06F
HILLSDALE      CLOUDY    73  54  49 S9G16     30.03F
HOWELL         SUNNY     76  57  50 S16G22    30.01F

CITY           SKY/WX    TMP DP  RH WIND       PRES   REMARKS
JACKSON        SUNNY     75  56  51 SE13      30.01F
LAMBERTVILLE   SUNNY     81  53  38 S13       30.05F
LANSING        PTSUNNY   74  57  55 S20       29.99F
LAPEER         FAIR      75  56  52 S8G23     30.03F
MASON          MOSUNNY   76  57  51 S8G18     30.00S
MONROE         SUNNY     80  53  38 S16G22    30.04F
PONTIAC        PTSUNNY   75  57  53 S10G24    30.03F
PORT HOPE        N/A     76  50  40 S7G23     29.98F
PORT HURON     SUNNY     75  55  50 S20G28    30.07S
TRI CITIES     SUNNY     78  59  51 S23G31    29.97F
MIDLAND        PTSUNNY   78  58  49 S13G20    29.94F
TROY           SUNNY     75  56  50 S14G21    30.07F
SAGINAW HB     SUNNY     77  55  47 S21       29.97F
$$
MIZ043>046-050>051-056>058-064>065-071>073-077>080-222100-
SOUTHWEST LOWER MICHIGAN

CITY           SKY/WX    TMP DP  RH WIND       PRES   REMARKS
BATTLE CREEK   CLOUDY    74  59  59 S13       29.99F
BENTON HARBOR  CLOUDY    73  57  57 S17G30    29.95S
BIG RAPIDS     RAIN      68  60  75 S9G20     29.93R
COLDWATER      PTSUNNY   76  54  46 S14G23    30.01S
FREMONT        HVY RAIN  65  65  99 S6        29.92F
HOLLAND        CLOUDY    70  61  73 S9        29.94F
GRAND RAPIDS   LGT RAIN  74  61  63 S12       29.95F
IONIA          FAIR      75  57  53 S18G29    29.96F
KALAMAZOO      CLOUDY    73  56  54 S17G25    29.97F
LUDINGTON      HVY RAIN  57  55  95 NW9G18    29.95R
MARSHALL       CLOUDY    73  57  56 S12G18    29.99F
MOUNT PLEASANT PTSUNNY   78  58  50 S14G22    29.94S
MUSKEGON       LGT RAIN  67  62  84 S13       29.93F
SOUTH HAVEN    CLOUDY    72  59  63 S10G16    29.95S
$$
MIZ016>042-222100-
NORTHERN LOWER MICHIGAN

CITY           SKY/WX    TMP DP  RH WIND       PRES   REMARKS
ALPENA         SUNNY     75  54  47 S15G29    29.93F
BEAVER ISLAND  LGT RAIN  57  56  94 W14G20    29.91R
BELLAIRE       HVY RAIN  64  61  91 SW5       29.91R
CADILLAC       RAIN      65  62  90 SW9       29.93F
CHARLEVOIX     RAIN      63  63 100 SW12      29.94R
FRANKFORT      LGT RAIN  55  54  97 NW13G22   29.95R
GAYLORD        PTSUNNY   72  50  45 S18G25    29.90F
GRAYLING       CLOUDY    73  50  44 S14G25    29.92F
HARBOR SPRINGS LGT RAIN  62  61  95 W12G24    29.90R
HOUGHTON LAKE  MOSUNNY   73  54  51 S16G23    29.93F
MANISTEE       LGT RAIN  57  55  93 NW22      29.94R
OSCODA         MOSUNNY   75  53  45 S21G28    29.96F
PELLSTON       LGT RAIN  75  55  49 SW10      29.88S
ROGERS CITY    MOSUNNY   76  55  48 S15       29.90F
TRAVERSE CITY  LGT RAIN  66  63  90 VRB6      29.89S FOG
$$
MIZ007>008-015-222100-
EASTERN UPPER MICHIGAN

CITY           SKY/WX    TMP DP  RH WIND       PRES   REMARKS
KINROSS        CLOUDY    71  57  61 SW3       29.87F
MACKINAC ISLAN CLOUDY    70  56  60 W14       29.88R
NEWBERRY       RAIN      57  56  97 NW17G25   29.91R
S. S. MARIE    CLOUDY    70  56  61 SE9       29.86F
MUNISING         N/A     52  50  93 NW7       29.91F
$$
MIZ004>006-011>014-085-222100-
CENTRAL UPPER MICHIGAN

CITY           SKY/WX    TMP DP  RH WIND       PRES   REMARKS
MANISTIQUE     DRIZZLE   51  46  82 NW10G20   29.90S
ESCANABA       LGT RAIN  51  49  92 W3        29.94R
MENOMINEE      LGT RAIN  52  50  93 SW3       29.96S
SAWYER-GWINN   CLOUDY    48  46  93 W5        29.91S
$$
MIZ001>003-009>011-084-222100-
WESTERN UPPER MICHIGAN

CITY           SKY/WX    TMP DP  RH WIND       PRES   REMARKS
IRON MOUNTAIN  LGT RAIN  50  45  83 W5        29.91S
HOUGHTON       CLOUDY    52  41  66 W12       29.86S
COPPER HARBOR    N/A     52  45  77 VRB3      29.86S
IRONWOOD       PTSUNNY   51  37  58 SW9       29.89F
$$

ABBREVIATIONS USED IN REMARKS
   TC - TEMPERATURE IN CELSIUS
  WCI - WIND CHILL INDEX
   HX - HEAT INDEX
  VSB - VISIBILITY





USA.gov is the U.S. government's official web portal to all federal, state and local government web resources and services.